Le nostre stazioni meteo in Italia

Pubblicità
Il mio iltempo24.it
Pescara, Italia (16230): Temperatura & dewpoint: 16.01.2020 00:00:00 - 22.01.2020 00:00:00 (CET)Pescara, Italia (16230): velocità del vento: 16.01.2020 00:00:00 - 22.01.2020 00:00:00 (CET)Pescara, Italia (16230): direzione del vento: 16.01.2020 00:00:00 - 22.01.2020 00:00:00 (CET)Pescara, Italia (16230): reduced air pressure: 16.01.2020 00:00:00 - 22.01.2020 00:00:00 (CET)Pescara, Italia (16230): visibility: 16.01.2020 00:00:00 - 22.01.2020 00:00:00 (CET)Pescara, Italia (16230): precipitazioni: 16.01.2020 00:00:00 - 22.01.2020 00:00:00 (CET)
Data & Tempo tt [°C] td [°C] ff [km/h] ff [kn] dd ppp [hPa] vv [km] rr [mm]
22.01.2020 00:00:00 - - - - - - - -
21.01.2020 23:00:00 2,0 2,0 4 2 SO - 10 -
21.01.2020 22:00:00 2,7 2,1 8 4 SO 1039,4 15 0,0
21.01.2020 21:00:00 3,0 2,0 8 4 SSO - 10 -
21.01.2020 20:00:00 4,0 3,0 9 5 SSO - 10 -
21.01.2020 19:00:00 5,1 3,5 4 2 SO 1039,8 15 -
21.01.2020 18:00:00 8,0 5,0 2 1 - - 10 -
21.01.2020 17:00:00 9,0 5,0 4 2 - - 10 -
21.01.2020 16:00:00 8,9 4,4 8 4 N 1040,4 10 0,0
21.01.2020 15:00:00 10,0 4,0 8 4 N - 10 -
21.01.2020 14:00:00 10,0 3,0 9 5 N - 10 -
21.01.2020 13:00:00 10,0 2,6 13 7 NNE 1041,5 30 -
21.01.2020 12:00:00 11,0 2,0 5 3 ENE - 10 -
21.01.2020 11:00:00 9,0 2,0 9 5 SSO - 10 -
21.01.2020 10:00:00 6,8 2,7 9 5 SSO 1042,4 15 0,0
21.01.2020 09:00:00 2,0 1,0 9 5 S - 10 -
21.01.2020 08:00:00 1,0 0,0 8 4 SO - 10 -
21.01.2020 07:00:00 1,8 0,7 8 4 SO 1041,9 10 -
21.01.2020 06:00:00 1,0 0,0 9 5 SSO - 10 -
21.01.2020 05:00:00 1,0 0,0 11 6 SSO - 10 -
21.01.2020 04:00:00 1,2 0,3 9 5 SSO 1041,8 15 0,0
21.01.2020 03:00:00 1,0 0,0 11 6 SSO - 10 -
21.01.2020 02:00:00 1,0 0,0 9 5 SSO - 10 -
21.01.2020 01:00:00 2,8 1,7 4 2 SSO 1042,0 25 -
21.01.2020 00:00:00 3,0 1,0 8 4 SO - 10 -
20.01.2020 23:00:00 4,0 3,0 8 4 SO - 10 -
20.01.2020 22:00:00 5,3 3,0 8 4 OSO 1041,9 10 0,0
20.01.2020 21:00:00 6,0 3,0 9 5 SO - 10 -
20.01.2020 20:00:00 7,0 3,0 9 5 SSO - 10 -
20.01.2020 19:00:00 6,6 2,8 4 2 N 1040,6 10 -
20.01.2020 18:00:00 8,0 2,0 2 1 - - 10 -
20.01.2020 17:00:00 9,0 2,0 5 3 ONO - 10 -
20.01.2020 16:00:00 9,7 1,9 5 3 NO 1039,2 20 0,0
20.01.2020 15:00:00 10,0 2,0 9 5 NNO - 10 -
20.01.2020 14:00:00 10,0 2,0 9 5 NNO - 10 -
20.01.2020 13:00:00 10,4 1,8 13 7 N 1038,7 30 -
20.01.2020 12:00:00 11,0 3,0 9 5 NNO - 10 -
20.01.2020 11:00:00 9,0 5,0 5 3 SO - 10 -
20.01.2020 10:00:00 7,7 6,1 8 4 SO 1038,1 15 0,0
20.01.2020 09:00:00 6,0 6,0 8 4 SO - 10 -
20.01.2020 08:00:00 5,0 4,0 9 5 SSO - 10 -
20.01.2020 07:00:00 5,7 5,1 5 3 SSO 1036,2 10 -
20.01.2020 06:00:00 6,0 5,0 8 4 SO - 10 -
20.01.2020 05:00:00 5,0 5,0 9 5 SSO - 10 -
20.01.2020 04:00:00 5,2 4,7 11 6 SO 1034,9 10 0,0
20.01.2020 03:00:00 6,0 5,0 11 6 SO - 10 -
20.01.2020 02:00:00 6,0 6,0 11 6 SSO - 10 -
20.01.2020 01:00:00 6,3 5,5 8 4 SO 1033,5 - -
20.01.2020 00:00:00 7,0 6,0 9 5 SO - 10 -
19.01.2020 23:00:00 7,0 6,0 8 4 SO - 10 -
19.01.2020 22:00:00 6,6 5,7 9 5 SO 1031,6 10 0,0
19.01.2020 21:00:00 7,0 6,0 8 4 OSO - 10 -
19.01.2020 20:00:00 7,0 6,0 9 5 SSO - 10 -
19.01.2020 19:00:00 7,5 6,4 8 4 SSO 1030,1 15 -
19.01.2020 18:00:00 8,0 6,0 9 5 SSO - 10 -
19.01.2020 17:00:00 9,0 6,0 5 3 ONO - 10 -
19.01.2020 16:00:00 8,5 6,2 5 3 NNE 1027,3 15 0,0
19.01.2020 15:00:00 9,0 6,0 4 2 - - 10 -
19.01.2020 14:00:00 9,0 7,0 5 3 OSO - 10 -
19.01.2020 13:00:00 9,8 6,9 5 3 O 1025,8 10 -
19.01.2020 12:00:00 9,0 8,0 11 6 SO - 10 -
19.01.2020 11:00:00 9,0 8,0 9 5 SSO - 10 -
19.01.2020 10:00:00 7,6 7,2 11 6 SO 1025,2 4,2 0,0
19.01.2020 09:00:00 7,0 7,0 9 5 SSO - 3,1 -
19.01.2020 08:00:00 7,0 6,0 8 4 SSO - 2,3 -
19.01.2020 07:00:00 6,2 5,9 5 3 SSO 1022,9 4,0 -
19.01.2020 06:00:00 6,0 6,0 5 3 SO - 2,0 -
19.01.2020 05:00:00 6,0 6,0 8 4 SSO - 1,2 -
19.01.2020 04:00:00 6,1 5,8 2 1 N 1022,0 0,7 0,0
19.01.2020 03:00:00 7,0 6,0 5 3 SSO - 1,1 -
19.01.2020 02:00:00 7,0 7,0 5 3 OSO - 1,6 -
19.01.2020 01:00:00 7,3 7,0 4 2 SO 1021,8 1,7 -
19.01.2020 00:00:00 7,0 7,0 5 3 SSO - 1,2 -
18.01.2020 23:00:00 8,0 7,0 2 1 - - 1,4 -
18.01.2020 22:00:00 8,0 7,5 4 2 OSO 1021,9 1,8 0,0
18.01.2020 21:00:00 8,0 7,0 5 3 SO - 2,4 -
18.01.2020 20:00:00 8,0 7,0 8 4 NNO - 6 -
18.01.2020 19:00:00 8,9 7,0 5 3 NO 1021,4 10 -
18.01.2020 18:00:00 9,0 7,0 11 6 NNO - 8 -
18.01.2020 17:00:00 10,0 7,0 13 7 N - 10 -
18.01.2020 16:00:00 10,3 7,1 4 2 NNO 1019,6 10 0,0
18.01.2020 15:00:00 12,0 5,0 13 7 N - 10 -
18.01.2020 14:00:00 14,0 2,0 15 8 NE - 10 -
18.01.2020 13:00:00 15,9 2,9 9 5 ENE 1019,2 30 -
18.01.2020 12:00:00 15,0 3,0 8 4 NE - 10 -
18.01.2020 11:00:00 12,0 3,0 4 2 - - 10 -
18.01.2020 10:00:00 9,4 2,6 2 1 N 1021,4 30 0,0
18.01.2020 09:00:00 8,0 3,0 2 1 - - 10 -
18.01.2020 08:00:00 5,0 1,0 2 1 - - 10 -
18.01.2020 07:00:00 7,2 0,9 9 5 SO 1021,6 20 -
18.01.2020 06:00:00 4,0 1,0 5 3 SO - 10 -
18.01.2020 05:00:00 4,0 2,0 8 4 SSO - 10 -
18.01.2020 04:00:00 2,3 1,2 4 2 SO 1023,1 10 0,0
18.01.2020 03:00:00 1,0 0,0 9 5 SSO - 10 -
18.01.2020 02:00:00 1,0 0,0 8 4 SSO - 9 -
18.01.2020 01:00:00 2,0 0,5 4 2 SO 1024,0 10 -
18.01.2020 00:00:00 2,0 0,0 8 4 SO - 10 -
17.01.2020 23:00:00 3,0 1,0 8 4 SO - 10 -
17.01.2020 22:00:00 2,3 0,7 11 6 SSO 1025,9 10 0,0
17.01.2020 21:00:00 4,0 2,0 5 3 SO - 10 -
17.01.2020 20:00:00 4,0 2,0 5 3 SSO - 10 -
17.01.2020 19:00:00 5,1 2,5 9 5 S 1026,1 10 -
17.01.2020 18:00:00 8,0 2,0 5 3 NNO - 10 -
17.01.2020 17:00:00 10,0 2,0 8 4 NNE - 10 -
17.01.2020 16:00:00 11,8 3,3 9 5 NE 1025,0 30 0,0
17.01.2020 15:00:00 13,0 5,0 11 6 NE - 10 -
17.01.2020 14:00:00 13,0 4,0 13 7 NE - 10 -
17.01.2020 13:00:00 14,6 0,2 5 3 N 1025,8 55 -
17.01.2020 12:00:00 13,0 2,0 9 5 SO - 10 -
17.01.2020 11:00:00 9,0 2,0 11 6 SO - 10 -
17.01.2020 10:00:00 6,5 1,9 9 5 SO 1027,7 30 0,0
17.01.2020 09:00:00 2,0 1,0 5 3 SSO - 10 -
17.01.2020 08:00:00 0,0 -1,0 8 4 SSO - 10 -
17.01.2020 07:00:00 -0,3 -1,2 5 3 SSO 1027,8 9 -
17.01.2020 06:00:00 0,0 -1,0 8 4 SO - 8 -
17.01.2020 05:00:00 0,0 -1,0 8 4 SSO - 9 -
17.01.2020 04:00:00 0,0 -0,8 8 4 SO 1027,8 5 0,0
17.01.2020 03:00:00 0,0 -1,0 9 5 SSO - 6 -
17.01.2020 02:00:00 1,0 0,0 5 3 SO - 5 -
17.01.2020 01:00:00 1,7 0,4 5 3 SO 1028,4 7 -
17.01.2020 00:00:00 - - - - - - - -
16.01.2020 23:00:00 3,0 2,0 11 6 OSO - 5 -
16.01.2020 22:00:00 3,6 2,2 8 4 SO 1029,3 5 0,0
16.01.2020 21:00:00 5,0 4,0 9 5 SO - 5 -
16.01.2020 20:00:00 4,0 3,0 8 4 SSO - 4,0 -
16.01.2020 19:00:00 6,7 5,3 5 3 OSO 1029,7 3,0 -
16.01.2020 18:00:00 10,0 7,0 2 1 - - 2,0 -
16.01.2020 17:00:00 9,0 6,0 5 3 N - 2,0 -
16.01.2020 16:00:00 11,5 6,3 9 5 NE 1029,0 10 0,0
16.01.2020 15:00:00 14,0 5,0 8 4 ENE - 10 -
16.01.2020 14:00:00 14,0 4,0 11 6 NNE - 10 -
16.01.2020 13:00:00 14,2 3,1 11 6 N 1029,9 30 -
16.01.2020 12:00:00 13,0 2,0 2 1 - - 10 -
16.01.2020 11:00:00 10,0 2,0 9 5 SO - 10 -
16.01.2020 10:00:00 7,9 2,1 9 5 OSO 1031,7 30 0,0
16.01.2020 09:00:00 3,0 0,0 11 6 OSO - 10 -
16.01.2020 08:00:00 2,0 0,0 5 3 OSO - 10 -
16.01.2020 07:00:00 1,5 -0,8 8 4 OSO 1031,1 25 -
16.01.2020 06:00:00 2,0 -1,0 9 5 SO - 10 -
16.01.2020 05:00:00 2,0 0,0 9 5 SO - 10 -
16.01.2020 04:00:00 1,0 -0,7 8 4 SO 1030,7 25 0,0
16.01.2020 03:00:00 1,0 0,0 8 4 SO - 9 -
16.01.2020 02:00:00 1,0 0,0 8 4 SO - 9 -
16.01.2020 01:00:00 1,8 0,6 8 4 SO 1030,2 7 -
16.01.2020 00:00:00 3,0 1,0 8 4 SO - 10 -

tt = Temperatura
td = dewpoint
ff = velocità del vento
dd = direzione del vento
ppp = reduced air pressure
vv = visibility
rr = precipitazioni

Stazioni seguenti

WeatherPro
AMSI
MeteoEarth